User: anonymous   Login
Location: Ostrava
(49.8330°N, 18.2830°E)
Time: 22:36:42
(UTC+02:00)
Language:

Cosmos 2219 Rocket - Orbit

View from above orbital plane
View from above orbital plane
View from above satellite
View from above satellite

Ground track
Ground track

The orbit data is extracted from the following two-line orbital elements,

1 22220U 92076B   14295.46327163  .00000168  00000-0  10868-3 0  4395
2 22220 070.9999 298.2307 0014914 304.2494 217.5085 14.16323617133604
Epoch (UTC): 22 October 2014 11:07:06
Eccentricity: 0.0014914
inclination: 70.9999°
perigee height: 827 km
apogee height: 848 km
right ascension of ascending node: 298.2307°
argument of perigee: 304.2494°
revolutions per day: 14.16323617
mean anomaly at epoch: 217.5085°
orbit number at epoch: 13360

The dashed part of the orbit path shows where the satellite is in the earth's shadow,  

DLR